sat.trackr.live / text

‹ back to catalog

STARLINK-11504 [DTC]

NORAD 62274 · 2024-237H

PAYLOAD ACTIVE UNKNOWN

§ Identity

Operator
Country
US
Launch date
2024-12-08
Launch site
AFETR
Launch vehicle
Mass (kg)
RCS (m²)

Purposes: comms

External: N2YO · Heavens-Above · Gunter

§ Orbital elements

Epoch: 2026-05-24T21:13:45.257376Z

Period
91.66 min
Inclination
43.0003°
Eccentricity
0.0002913
Mean motion
15.70951556 rev/d
Perigee alt
354.2 km
Apogee alt
358.1 km
Semi-major
6,734.3 km
B*
1.2166e-3
RAAN
317.5214°
Arg perigee
265.8918°
Mean anomaly
94.1617°
Rev number
8,498

§ Raw data

STARLINK-11504 [DTC]1 62274U 24237H   26144.88455159  .00159450  00000+0  12166-2 0  99922 62274  43.0003 317.5214 0002913 265.8918  94.1617 15.70951556 84981

JSON: /api/v1/satellites/62274 · /tle

For live sub-satellite position, see the globe view (requires WebGL).

§ Visibility from observer

Set your observer location to see the next 7 days of passes ≥ 10°. The values pass through the URL so the page stays shareable.

No JS? Fill the form by hand. The geolocation button needs JavaScript.